Location: Avoca
(45.7167°N, 74.7000°W)
Time: 15:01:31
(UTC+00:00)

BlueWalker 3 - Pass Details

Date: 28 November 2022
Orbit: 499 x 517 km, 53.2° (Epoch: 01 February)

Event Time Altitude Azimuth Distance (km) Brightness Sun altitude
Rises 21:55:50 0° 246° (WSW) 2,625 8.4 -6.8°
Reaches altitude 10° 21:58:03 10° 249° (WSW) 1,737 6.5 -7.1°
Maximum altitude 22:01:57 65° 331° (NNW) 568 2.2 -7.7°
Enters shadow 22:05:48 10° 55° (NE) 1,708 4.0 -8.4°
